Home   Weather   Sharm el-Sheikh   Past weeks
Flag for Egypt

Past Weather in Sharm el-Sheikh, Egypt — Yesterday and Last 2 Weeks

Now
81 °F

Sunny.


Feels Like: 82 °F
Forecast: 96 / 78 °F
Wind: 21 mph from North

Location: Sharm El Sheikhintl

Current Time: May 20, 2019 at 9:33:35 am

Latest Report: May 20, 2019 at 8:00 am


Visibility: 10 mi

Pressure: 29.83 "Hg

Humidity: 54%

Dew Point: 63 °F

Location of Sharm el-SheikhLocation

Past Weather in Sharm el-Sheikh — Graph

°F

Sharm el-Sheikh Temperature Yesterday

Maximum temperature yesterday: 97 °F (at 2:00 pm)
Minimum temperature yesterday: 77 °F (at 10:00 am)
Average temperature yesterday: 88 °F

High & Low Weather Summary for the Past Weeks

 TemperatureHumidityPressure
High109 °F (May 17, 1:00 pm)74% (May 16, 8:00 pm)29.98 "Hg (May 16, 8:00 pm)
Low64 °F (May 12, 8:00 pm)14% (May 12, 1:00 pm)29.65 "Hg (May 17, 3:00 pm)
Average84 °F36%29.81 "Hg
* Reported May 5 7:00 am — May 20 7:00 am, Sharm el-Sheikh. Weather by CustomWeather, © 2019

Note: Actual official high and low records may vary slightly from our data, if they occured in-between our weather recording intervals... More about our weather records

Advertising

Sharm el-Sheikh Weather History for the Previous 24 Hours

Scroll right to see more
 ConditionsComfort  
Time TempWeatherWind HumidityBarometerVisibility
7:00 am
Mon, May 20
81 °FSunny.18 mph54%29.83 "Hg10 mi
6:00 am77 °FSunny.20 mph61%29.83 "Hg10 mi
5:00 am77 °FSunny.16 mph57%29.80 "Hg10 mi
4:00 am77 °FClear.18 mph51%29.80 "Hg10 mi
3:00 am79 °FClear.17 mph48%29.80 "Hg10 mi
2:00 am79 °FClear.17 mph54%29.80 "Hg10 mi
1:00 am81 °FClear.16 mph51%29.80 "Hg10 mi
12:00 am82 °FClear.20 mph45%29.80 "Hg10 mi
11:00 pm
Sun, May 19
84 °FClear.15 mph37%29.80 "Hg10 mi
10:00 pm86 °FClear.17 mph35%29.80 "Hg10 mi
9:00 pm86 °FClear.5 mph33%29.77 "Hg10 mi
8:00 pm90 °FClear.6 mph22%29.77 "Hg10 mi
7:00 pm90 °FClear.7 mph24%29.74 "Hg10 mi
6:00 pm91 °FSunny.7 mph23%29.74 "Hg10 mi
5:00 pm95 °FSunny.3 mph22%29.74 "Hg10 mi
4:00 pm97 °FSunny.2 mph22%29.74 "Hg10 mi
3:00 pm97 °FSunny.8 mph22%29.77 "Hg10 mi
2:00 pm97 °FSunny.6 mph22%29.77 "Hg10 mi
1:00 pm95 °FSunny.12 mph23%29.80 "Hg10 mi
12:00 pm95 °FSunny.9 mph22%29.80 "Hg10 mi
11:00 am93 °FSunny.18 mph24%29.83 "Hg10 mi
10:00 am77 °FSunny.12 mph44%29.95 "Hg10 mi
Weather by CustomWeather, © 2019

See weather overview